DW0170 Weather Reports


time (UTC)temp
C
wind
direction
speed
KPH
gust
KPH
rain 1hr
cm
rain 24hr
cm
rain mn
cm
humidity
%
barometer
mb
20260506201539 3 0 0.0 0.0 0.00 1.60 1.02 92 1005.5
20260506200046 3 0 0.0 0.0 0.00 1.60 1.02 92 1005.2
20260506194536 3 0 0.0 3.2 0.00 1.60 1.02 92 1005.2
20260506193039 3 0 0.0 0.0 0.00 1.60 1.02 92 1005.4
20260506191539 3 0 0.0 0.0 0.00 1.60 1.02 92 1005.1
20260506190046 3 0 0.0 3.2 0.00 1.60 1.02 92 1005.1
20260506184548 3 0 0.0 0.0 0.00 1.60 1.02 92 1004.9
20260506183035 5 0 0.0 0.0 0.00 1.60 1.02 92 1004.8
20260506181538 5 0 0.0 0.0 0.00 1.60 1.02 92 1004.7
20260506180039 5 0 0.0 0.0 0.00 1.60 1.02 92 1004.6
20260506174537 5 0 0.0 0.0 0.00 1.60 1.02 92 1004.5
20260506173047 5 0 0.0 4.8 0.00 1.60 1.02 92 1004.2
20260506171538 5 0 0.0 0.0 0.00 1.60 1.02 92 1004.0
20260506170041 5 0 0.0 0.0 0.00 1.60 1.02 92 1003.7
20260506164545 5 0 0.0 0.0 0.00 1.60 1.02 92 1003.8
20260506163055 5 0 1.6 4.8 0.00 1.60 1.02 92 1003.8
20260506161540 5 0 0.0 0.0 0.00 1.60 1.02 92 1003.8
20260506160038 6 201 1.6 9.7 0.00 1.60 1.02 92 1004.0
20260506154543 5 0 1.6 8.0 0.00 1.60 1.02 92 1004.1
20260506153040 6 0 0.0 9.7 0.00 1.60 1.02 92 1004.1
20260506151542 6 169 0.0 9.7 0.05 1.60 1.02 92 1004.0
20260506150038 5 0 3.2 8.0 0.05 1.60 1.02 92 1004.0
20260506144537 -17 0 4.8 11.3 0.08 1.75 1.02 1003.9
20260506143039 5 0 3.2 12.9 0.08 1.75 1.02 92 1003.8
20260506141540 5 189 8.0 19.3 0.03 1.70 0.97 92 1003.8
20260506140040 6 0 3.2 17.7 0.00 1.68 0.94 92 1003.6
20260506134538 5 188 3.2 11.3 0.00 1.91 0.94 92 1003.6
20260506133038 6 217 3.2 14.5 0.00 1.91 0.94 92 1003.7
20260506131539 5 187 4.8 16.1 0.00 1.91 0.94 92 1003.6
20260506130040 5 200 8.0 14.5 0.00 1.91 0.94 92 1003.3
20260506124535 6 195 1.6 9.7 0.00 1.91 0.94 92 1003.1
20260506123041 6 188 3.2 9.7 0.00 1.91 0.94 92 1003.0
20260506121547 6 186 6.4 11.3 0.00 1.91 0.94 92 1003.0
20260506120040 6 165 1.6 12.9 0.00 1.91 0.94 92 1002.8
20260506114534 6 165 3.2 9.7 0.00 1.91 0.94 92 1002.6
20260506113034 5 182 4.8 9.7 0.00 1.91 0.94 92 1002.6
20260506111538 5 0 0.0 3.2 0.00 1.91 0.94 91 1002.5
20260506110042 5 0 3.2 6.4 0.00 1.91 0.94 92 1002.6
20260506104537 5 0 0.0 0.0 0.03 1.91 0.94 91 1002.6
20260506103038 5 0 0.0 0.0 0.05 1.91 0.94 91 1002.6
20260506101535 5 0 0.0 4.8 0.10 1.91 0.94 91 1002.6
20260506100039 4 0 0.0 3.2 0.13 1.91 0.94 92 1002.6
20260506094542 4 0 0.0 0.0 0.20 1.88 0.91 92 1002.7
20260506093039 3 0 0.0 0.0 0.36 1.85 0.89 91 1002.5
20260506091537 3 0 0.0 3.2 0.51 1.80 0.84 91 1002.3
20260506090037 3 0 0.0 0.0 0.61 1.78 0.81 91 1002.4
20260506084543 4 0 0.0 0.0 0.58 1.68 0.71 92 1002.4
20260506083038 4 0 0.0 4.8 0.41 1.47 0.53 92 1002.1
20260506081543 5 209 4.8 9.7 0.23 1.30 0.33 92 1001.7
20260506073038 5 0 0.0 0.0 0.03 1.09 0.13 91 1000.8
20260506071542 5 0 0.0 0.0 0.00 1.07 0.10 91 1000.7
20260506061543 5 0 0.0 0.0 0.00 1.07 0.10 91 1000.6
20260506044544 4 0 0.0 0.0 0.00 1.12 0.10 91 1000.7
20260506043037 3 0 0.0 0.0 0.00 1.12 0.10 91 1000.7
20260506041550 3 0 0.0 0.0 0.03 1.12 0.10 91 1000.7
20260506040041 3 315 1.6 3.2 0.03 1.12 0.10 91 1000.8
20260506034549 3 0 0.0 0.0 0.03 1.12 0.10 91 1000.9
20260506033040 3 0 0.0 0.0 0.03 1.12 0.10 91 1000.8
20260506031537 3 0 0.0 0.0 0.00 1.09 0.08 91 1001.0
20260506030039 3 0 0.0 0.0 0.00 1.09 0.08 91 1001.2
20260506024540 3 0 0.0 0.0 0.00 1.09 0.08 91 1001.4
20260506023040 3 0 0.0 0.0 0.00 1.09 0.08 91 1001.8
20260506021538 3 0 0.0 0.0 0.00 1.09 0.08 91 1001.8
20260506020042 3 0 0.0 0.0 0.00 1.09 0.08 91 1002.1
20260506014538 3 0 0.0 0.0 0.00 1.09 0.08 91 1002.5
20260506013050 3 0 0.0 0.0 0.00 1.09 0.08 91 1002.7
20260506011543 3 0 0.0 0.0 0.00 1.09 0.08 91 1002.8
20260506010043 4 0 0.0 0.0 0.00 1.09 0.08 90 1003.0
20260506004537 4 0 0.0 0.0 0.00 1.09 0.08 91 1003.2
20260506003038 4 0 0.0 0.0 0.00 1.09 0.08 90 1003.6
20260506001537 5 0 0.0 0.0 0.03 1.09 0.08 90 1003.8
20260506000037 5 0 0.0 0.0 0.03 1.09 0.08 90 1004.0
20260505234536 5 315 0.0 3.2 0.08 1.09 0.08 90 1004.6
20260505233035 5 0 0.0 0.0 0.08 1.09 0.08 91 1004.9
20260505231534 5 0 0.0 0.0 0.05 1.07 0.05 91 1004.9
20260505230100 5 0 0.0 6.4 0.05 1.07 0.05 90 1004.9
20260505224538 5 0 0.0 0.0 0.00 1.02 0.00 90 1005.0
20260505223042 5 0 0.0 0.0 0.00 1.02 0.00 90 1005.4
20260505221541 5 324 3.2 6.4 0.00 1.02 0.00 91 1005.5
20260505220051 5 0 0.0 4.8 0.00 1.02 0.00 91 1005.6
20260505214538 5 13 0.0 3.2 0.15 1.02 1.02 91 1005.9
20260505213037 5 0 0.0 6.4 0.41 1.02 1.02 90 1006.0
20260505211546 5 0 0.0 0.0 0.56 1.02 1.02 90 1005.8
20260505210041 5 0 3.2 25.7 0.58 1.02 1.02 87 1005.8
20260505204540 5 0 12.9 35.4 0.41 0.84 0.84 87 1006.0
20260505203038 6 307 22.5 40.2 0.15 0.58 0.58 90 1006.0